[[{"header":{"parameterUnit":"m.s-1","parameterCategory":1,"la1":30.2991,"la2":30.254,"lo1":-89.0895,"lo2":-89.0444,"dy":0.0017,"dx":0.0017,"nx":28,"ny":28,"refTime":"2023-04-01T21:00:00:Z","depth":0,"parameterNumber":2,"parameterNumberName":"U-component_of_WINDS"},"data":[0,0,0,0,0,0,0,0,0,0,0,0,0,0,0,0,0,0,0,0,0,0,0,0,0,0,0,0,0,0,0,0,0,0,0,0,0,0,0,0,0,0,0,0,0,0,0,0,0,0,0,0,0,0,0,0,0,0,-0.3772,-0.3772,0,-0.3738,-0.3738,-0.3738,-0.3731,-0.3731,-0.3731,-0.3732,-0.3697,-0.3696,-0.3694,0,0,0,0,0,0,0,0,0,0,0,0,0,-0.383,-0.3829,-0.3772,-0.3772,-0.3771,-0.3738,-0.3738,-0.3738,-0.3731,-0.3731,-0.3731,-0.3732,-0.3697,-0.3696,-0.3694,0,0,0,0,0,0,0,0,0,0,0,0,0,-0.3801,-0.3828,-0.3772,-0.3764,-0.3763,-0.3739,-0.3738,-0.3737,-0.3731,-0.3731,-0.3732,-0.3732,-0.3698,-0.3696,-0.3694,-0.3675,0,0,-0.3689,-0.3688,0,0,0,0,0,0,0,0,-0.3803,-0.3799,-0.3766,-0.3765,-0.3763,-0.3739,-0.3745,-0.3717,-0.3731,-0.3743,-0.3732,-0.3732,-0.371,-0.3708,-0.37,-0.3674,-0.3672,-0.3689,-0.3687,-0.3687,-0.3686,0,0,0,0,0,0,0,-0.3805,-0.3801,-0.3759,-0.3765,-0.3764,-0.3762,-0.3758,-0.374,-0.3725,-0.3742,-0.3741,-0.3737,-0.371,-0.3702,-0.37,-0.3672,-0.3689,-0.3687,-0.3686,-0.3685,-0.3627,-0.3626,0,0,0,0,0,0,-0.3808,-0.3802,-0.376,-0.3758,-0.3784,-0.376,-0.3756,-0.3747,-0.3725,-0.3722,-0.3737,-0.3737,-0.3705,-0.3702,-0.3698,-0.3674,-0.3687,-0.3685,-0.3684,-0.3627,-0.3627,-0.3626,0,0,0,0,0,0,-0.381,-0.3805,-0.3761,-0.378,-0.3774,-0.3759,-0.3748,-0.3746,-0.3738,-0.3722,-0.3719,-0.3732,-0.3705,-0.3701,-0.3681,-0.3673,-0.3684,-0.3683,-0.3628,-0.3627,-0.3626,-0.3627,0,0,0,0,0,0,-0.3811,-0.3805,-0.3798,-0.378,-0.3773,-0.3745,-0.3748,-0.3745,-0.3735,-0.3735,-0.3716,-0.3713,-0.3705,-0.3684,-0.3679,-0.3671,-0.3681,-0.3628,-0.3627,-0.3626,-0.3627,-0.3626,-0.3625,0,0,0,0,0,-0.3813,-0.38,-0.3798,-0.3793,-0.3764,-0.3744,-0.3741,-0.3732,-0.3734,-0.3727,-0.3716,-0.3714,-0.3675,-0.3682,-0.3677,-0.3668,-0.3629,-0.3628,-0.3627,-0.3628,-0.3626,-0.3625,0,0,0,0,0,0,-0.3818,-0.3797,-0.3795,-0.3775,-0.3762,-0.3743,-0.3734,-0.373,-0.3716,-0.3716,-0.3705,-0.3701,-0.3682,-0.3673,-0.3681,-0.3648,-0.3652,-0.365,-0.3654,-0.3653,-0.3652,-0.3654,-0.368,0,0,0,0,0,-0.3817,-0.3803,-0.3785,-0.3769,-0.3763,-0.3749,-0.374,-0.3734,-0.372,-0.3714,-0.3702,-0.3688,-0.3672,-0.3662,-0.3647,-0.3626,-0.3621,-0.3617,-0.3616,-0.3615,-0.3613,-0.36,-0.3598,-0.3622,-0.3622,-0.3622,0,0,-0.3814,-0.3801,-0.3793,-0.377,-0.3759,-0.3744,-0.3745,-0.3729,-0.3718,-0.3712,-0.3692,-0.3682,-0.3666,-0.3645,-0.3635,-0.3637,-0.3605,-0.3613,-0.3613,-0.3612,-0.3599,-0.3597,-0.3595,-0.3622,-0.3622,-0.3622,0,0,-0.3802,-0.3791,-0.3776,-0.3764,-0.3747,-0.3738,-0.3734,-0.3716,-0.371,-0.369,-0.3684,-0.367,-0.3644,-0.3632,-0.3622,-0.3604,-0.3601,-0.3599,-0.3593,-0.3581,-0.3579,-0.3577,-0.357,-0.3567,-0.3597,-0.3597,-0.3597,0,-0.3801,-0.3778,-0.3769,-0.3753,-0.3742,-0.3736,-0.372,-0.371,-0.3688,-0.3681,-0.3683,-0.3649,-0.3637,-0.3613,-0.3609,-0.3601,-0.3596,-0.3601,-0.358,-0.3578,-0.3576,-0.3569,-0.3566,-0.3597,-0.3597,-0.3597,-0.3597,0,-0.3777,-0.3762,-0.3751,-0.3731,-0.3719,-0.3704,-0.3691,-0.3681,-0.3675,-0.3666,-0.3645,-0.3631,-0.3612,-0.3606,-0.3601,-0.358,-0.3582,-0.3582,-0.3586,-0.3574,-0.3567,-0.3564,-0.3597,-0.3597,-0.3597,-0.3597,0,0,-0.3768,-0.3741,-0.3737,-0.3727,-0.3707,-0.3695,-0.3678,-0.366,-0.365,-0.3636,-0.3621,-0.3598,-0.3598,-0.3587,-0.358,-0.357,-0.3555,-0.3571,-0.357,-0.3568,-0.3531,-0.3531,-0.3528,-0.3553,-0.3552,-0.3552,-0.3532,0,-0.3752,-0.3723,-0.3713,-0.3689,-0.3674,-0.3667,-0.3652,-0.3638,-0.3629,-0.3614,-0.3604,-0.3587,-0.3588,-0.3582,-0.3571,-0.3559,-0.3547,-0.356,-0.3539,-0.3538,-0.3543,-0.3524,-0.3524,-0.3507,-0.3529,-0.3529,-0.3528,0,-0.3731,-0.3715,-0.3689,-0.367,-0.3663,-0.3651,-0.3632,-0.3618,-0.3602,-0.3595,-0.3583,-0.3576,-0.3558,-0.3563,-0.3538,-0.3547,-0.3537,-0.353,-0.3529,-0.3527,-0.3533,-0.3521,-0.3501,-0.3498,-0.3524,-0.3525,-0.3525,0,-0.3726,-0.3698,-0.3679,-0.3671,-0.3648,-0.3639,-0.3629,-0.3612,-0.3601,-0.3585,-0.3578,-0.356,-0.355,-0.3536,-0.3525,-0.3529,-0.35,-0.3504,-0.3494,-0.3494,-0.3488,-0.3489,-0.3466,-0.3482,-0.3482,-0.3482,-0.3482,0,-0.371,-0.3694,-0.3676,-0.3664,-0.3646,-0.3635,-0.3617,-0.3606,-0.3592,-0.3577,-0.357,-0.3556,-0.3542,-0.3527,-0.3518,-0.3498,-0.3494,-0.3488,-0.3485,-0.3488,-0.3489,-0.3482,-0.3483,-0.3482,-0.3482,-0.3482,-0.3482,0,-0.3702,-0.3689,-0.3667,-0.3647,-0.3641,-0.3629,-0.3611,-0.3599,-0.3589,-0.357,-0.3565,-0.3549,-0.353,-0.3518,-0.3494,-0.3488,-0.3466,-0.3464,-0.3471,-0.347,-0.346,-0.3461,-0.3432,-0.3428,-0.3447,-0.3447,-0.3447,0,-0.3692,-0.368,-0.3658,-0.3647,-0.3637,-0.3621,-0.3609,-0.3597,-0.3585,-0.3565,-0.3555,-0.3535,-0.3519,-0.3489,-0.3475,-0.3457,-0.3454,-0.3445,-0.3451,-0.3454,-0.3453,-0.3454,-0.3453,-0.3444,-0.3444,-0.3444,-0.3444,0,-0.3677,-0.3671,-0.3655,-0.3636,-0.3622,-0.3607,-0.3591,-0.3583,-0.3568,-0.3555,-0.3536,-0.3523,-0.3498,-0.3479,-0.3459,-0.3448,-0.3443,-0.3442,-0.3438,-0.3441,-0.3446,-0.3443,-0.3468,-0.3443,-0.3443,-0.3443,-0.3443,-0.3443,-0.3667,-0.3655,-0.3638,-0.362,-0.3606,-0.3592,-0.3579,-0.3567,-0.355,-0.3529,-0.3523,-0.3502,-0.3485,-0.3457,-0.3446,-0.3429,-0.343,-0.3425,-0.3424,-0.3423,-0.3423,-0.3448,-0.3425,-0.3425,-0.3425,-0.3425,-0.3425,0,-0.3651,-0.3639,-0.3622,-0.3601,-0.3586,-0.3582,-0.3565,-0.3553,-0.3535,-0.3519,-0.3503,-0.348,-0.3461,-0.3445,-0.3425,-0.3414,-0.3411,-0.3409,-0.341,-0.3407,-0.3423,-0.3428,-0.3412,-0.3412,-0.3412,-0.3412,-0.3412,-0.3412,-0.3641,-0.362,-0.3612,-0.3585,-0.3573,-0.3552,-0.3543,-0.3529,-0.3516,-0.349,-0.3474,-0.3464,-0.3447,-0.3426,-0.3408,-0.3404,-0.3396,-0.3395,-0.339,-0.3405,-0.3406,-0.3408,-0.3412,-0.3393,-0.3393,-0.3376,-0.3375,-0.3375]},{"header":{"parameterUnit":"m.s-1","parameterCategory":1,"la1":30.2991,"la2":30.254,"lo1":-89.0895,"lo2":-89.0444,"dy":0.0017,"dx":0.0017,"nx":28,"ny":28,"refTime":"2023-04-01T21:00:00:Z","depth":0,"parameterNumber":3,"parameterNumberName":"V-component_of_WINDS"},"data":[0,0,0,0,0,0,0,0,0,0,0,0,0,0,0,0,0,0,0,0,0,0,0,0,0,0,0,0,0,0,0,0,0,0,0,0,0,0,0,0,0,0,0,0,0,0,0,0,0,0,0,0,0,0,0,0,0,0,-2.2749,-2.275,0,-2.2756,-2.2756,-2.2756,-2.2755,-2.2755,-2.2755,-2.2755,-2.2759,-2.2759,-2.276,0,0,0,0,0,0,0,0,0,0,0,0,0,-2.2736,-2.2737,-2.2749,-2.275,-2.275,-2.2756,-2.2756,-2.2756,-2.2755,-2.2755,-2.2755,-2.2755,-2.2759,-2.2759,-2.276,0,0,0,0,0,0,0,0,0,0,0,0,0,-2.2742,-2.2737,-2.2749,-2.275,-2.275,-2.2755,-2.2756,-2.2756,-2.2755,-2.2755,-2.2755,-2.2755,-2.2759,-2.2759,-2.276,-2.2764,0,0,-2.276,-2.2761,0,0,0,0,0,0,0,0,-2.2742,-2.2743,-2.275,-2.275,-2.275,-2.2755,-2.2752,-2.2758,-2.2756,-2.2753,-2.2755,-2.2755,-2.2758,-2.2758,-2.2759,-2.2764,-2.2764,-2.276,-2.2761,-2.2761,-2.2761,0,0,0,0,0,0,0,-2.2741,-2.2742,-2.2752,-2.275,-2.275,-2.275,-2.2751,-2.2754,-2.2756,-2.2754,-2.2754,-2.2755,-2.2758,-2.2759,-2.2759,-2.2764,-2.276,-2.2761,-2.2761,-2.2761,-2.2773,-2.2773,0,0,0,0,0,0,-2.2741,-2.2742,-2.2752,-2.2752,-2.2746,-2.275,-2.2751,-2.2753,-2.2756,-2.2756,-2.2755,-2.2754,-2.2759,-2.2759,-2.276,-2.2765,-2.2761,-2.2761,-2.2761,-2.2773,-2.2773,-2.2773,0,0,0,0,0,0,-2.2741,-2.2742,-2.2751,-2.2747,-2.2748,-2.2751,-2.2753,-2.2754,-2.2755,-2.2757,-2.2757,-2.2756,-2.2759,-2.2759,-2.2763,-2.2765,-2.2761,-2.2761,-2.2772,-2.2773,-2.2773,-2.2775,0,0,0,0,0,0,-2.274,-2.2742,-2.2744,-2.2747,-2.2748,-2.2755,-2.2753,-2.2754,-2.2756,-2.2756,-2.2758,-2.2758,-2.2759,-2.2763,-2.2763,-2.2765,-2.2762,-2.2772,-2.2773,-2.2773,-2.2775,-2.2775,-2.2776,0,0,0,0,0,-2.274,-2.2743,-2.2744,-2.2745,-2.2751,-2.2755,-2.2756,-2.2757,-2.2756,-2.2757,-2.2759,-2.2758,-2.2765,-2.2763,-2.2764,-2.2766,-2.2772,-2.2772,-2.2773,-2.2775,-2.2775,-2.2776,0,0,0,0,0,0,-2.2739,-2.2744,-2.2744,-2.2749,-2.2752,-2.2755,-2.2757,-2.2757,-2.276,-2.276,-2.276,-2.2761,-2.2765,-2.2766,-2.2763,-2.277,-2.2768,-2.2769,-2.2769,-2.277,-2.277,-2.277,-2.2762,0,0,0,0,0,-2.2739,-2.2743,-2.2747,-2.275,-2.2752,-2.2754,-2.2756,-2.2757,-2.276,-2.2761,-2.2762,-2.2764,-2.2767,-2.2769,-2.2771,-2.2775,-2.2776,-2.2777,-2.2778,-2.2778,-2.2778,-2.2781,-2.2782,-2.2774,-2.2774,-2.2774,0,0,-2.274,-2.2743,-2.2745,-2.275,-2.2753,-2.2756,-2.2755,-2.2759,-2.2761,-2.2761,-2.2765,-2.2766,-2.2769,-2.2773,-2.2775,-2.2774,-2.2781,-2.2778,-2.2779,-2.2779,-2.2781,-2.2782,-2.2783,-2.2774,-2.2774,-2.2774,0,0,-2.2743,-2.2745,-2.2749,-2.2752,-2.2756,-2.2758,-2.2759,-2.2762,-2.2764,-2.2768,-2.2768,-2.2771,-2.2775,-2.2777,-2.2779,-2.2784,-2.2783,-2.2784,-2.2787,-2.2789,-2.279,-2.2791,-2.2792,-2.2793,-2.2785,-2.2785,-2.2785,0,-2.2742,-2.2748,-2.2751,-2.2755,-2.2757,-2.2758,-2.2762,-2.2764,-2.2769,-2.277,-2.2769,-2.2776,-2.2777,-2.2782,-2.2784,-2.2785,-2.2786,-2.2784,-2.279,-2.279,-2.2791,-2.2793,-2.2793,-2.2785,-2.2785,-2.2785,-2.2785,0,-2.2748,-2.2752,-2.2755,-2.276,-2.2763,-2.2767,-2.277,-2.2772,-2.2773,-2.2775,-2.2779,-2.2782,-2.2785,-2.2786,-2.2786,-2.2791,-2.2791,-2.279,-2.2788,-2.2792,-2.2794,-2.2794,-2.2785,-2.2785,-2.2785,-2.2785,0,0,-2.2749,-2.2757,-2.2758,-2.2761,-2.2766,-2.2769,-2.2773,-2.2777,-2.2779,-2.2783,-2.2786,-2.279,-2.279,-2.2792,-2.2792,-2.2795,-2.2799,-2.2794,-2.2794,-2.2795,-2.2805,-2.2805,-2.2806,-2.2799,-2.2799,-2.2799,-2.2805,0,-2.2753,-2.2761,-2.2764,-2.277,-2.2774,-2.2776,-2.2779,-2.2783,-2.2785,-2.2788,-2.279,-2.2793,-2.2793,-2.2794,-2.2796,-2.2798,-2.2801,-2.2798,-2.2802,-2.2802,-2.2801,-2.2807,-2.2807,-2.2812,-2.2805,-2.2805,-2.2805,0,-2.2757,-2.2762,-2.2769,-2.2775,-2.2776,-2.278,-2.2784,-2.2788,-2.2792,-2.2793,-2.2796,-2.2797,-2.2801,-2.2799,-2.2805,-2.2802,-2.2804,-2.2805,-2.2806,-2.2806,-2.2804,-2.2807,-2.2813,-2.2814,-2.2807,-2.2806,-2.2806,0,-2.2758,-2.2765,-2.2771,-2.2773,-2.278,-2.2782,-2.2785,-2.2789,-2.2792,-2.2796,-2.2797,-2.2801,-2.2803,-2.2806,-2.2808,-2.2807,-2.2814,-2.2812,-2.2814,-2.2814,-2.2815,-2.2815,-2.2822,-2.2817,-2.2817,-2.2817,-2.2817,0,-2.2761,-2.2765,-2.2771,-2.2775,-2.2779,-2.2783,-2.2788,-2.279,-2.2794,-2.2798,-2.2799,-2.2803,-2.2805,-2.2809,-2.281,-2.2815,-2.2815,-2.2816,-2.2817,-2.2816,-2.2816,-2.2817,-2.2817,-2.2817,-2.2817,-2.2817,-2.2817,0,-2.2761,-2.2766,-2.2772,-2.2779,-2.278,-2.2784,-2.2789,-2.2792,-2.2795,-2.2799,-2.2801,-2.2805,-2.2809,-2.2811,-2.2816,-2.2818,-2.2823,-2.2823,-2.2821,-2.2822,-2.2824,-2.2824,-2.2831,-2.2832,-2.2827,-2.2827,-2.2827,0,-2.2763,-2.2767,-2.2774,-2.2777,-2.278,-2.2785,-2.2788,-2.2792,-2.2795,-2.2801,-2.2803,-2.2808,-2.2812,-2.2819,-2.2822,-2.2826,-2.2826,-2.2828,-2.2826,-2.2826,-2.2826,-2.2825,-2.2826,-2.2828,-2.2828,-2.2828,-2.2829,0,-2.2766,-2.2768,-2.2773,-2.2779,-2.2783,-2.2788,-2.2792,-2.2795,-2.2799,-2.2803,-2.2808,-2.2811,-2.2817,-2.2822,-2.2826,-2.2828,-2.2829,-2.2829,-2.283,-2.2829,-2.2828,-2.2829,-2.2822,-2.2829,-2.2829,-2.2829,-2.2829,-2.2829,-2.2767,-2.277,-2.2776,-2.2782,-2.2786,-2.2791,-2.2795,-2.2798,-2.2803,-2.2809,-2.2811,-2.2816,-2.2821,-2.2827,-2.283,-2.2834,-2.2833,-2.2834,-2.2834,-2.2834,-2.2835,-2.2828,-2.2834,-2.2834,-2.2834,-2.2834,-2.2834,0,-2.2769,-2.2774,-2.2779,-2.2786,-2.2791,-2.2793,-2.2798,-2.2801,-2.2807,-2.2811,-2.2816,-2.2822,-2.2826,-2.283,-2.2835,-2.2838,-2.2838,-2.2839,-2.2838,-2.2839,-2.2835,-2.2834,-2.2838,-2.2838,-2.2838,-2.2838,-2.2838,-2.2838,-2.2771,-2.2777,-2.2781,-2.2789,-2.2793,-2.28,-2.2803,-2.2807,-2.2811,-2.2818,-2.2822,-2.2825,-2.283,-2.2835,-2.2839,-2.284,-2.2842,-2.2843,-2.2844,-2.2839,-2.2839,-2.2839,-2.2838,-2.2843,-2.2843,-2.2847,-2.2847,-2.2847]}]]